Location: Napa Soda Springs
(38.3907°N, 122.2794°W)
Time: 21:19:57
(UTC+00:00)

Cosmos 2195 Rocket - Pass Details

Date: 29 October 2020
Orbit: 948 x 994 km, 82.9° (Epoch: 24 November)

Event Time Altitude Azimuth Distance (km) Brightness Sun altitude
Rises 13:03:29 0° 194° (SSW) 3,660 7.4 -18.1°
Reaches altitude 10° 13:06:02 10° 197° (SSW) 2,710 6.7 -17.6°
Maximum altitude 13:12:11 65° 279° (W) 1,057 4.4 -16.4°
Drops below altitude 10° 13:18:18 10° 1° (N) 2,696 6.8 -15.2°
Sets 13:20:50 0° 4° (N) 3,640 7.5 -14.7°
